Regional Weather Roundup
Issued by NWS Raleigh/Durham, NC

Home | Current Version | Previous Version | Text Only | Print | Product List | Glossary On
Versions: 1 2 3 4 5 6 7 8 9 10 11 12 13 14 15 16 17 18 19 20 21 22 23 24 25 26 27
000
ASUS42 KRAH 241710
RWRRAH
NORTH CAROLINA WEATHER ROUNDUP
NATIONAL WEATHER SERVICE RALEIGH NC
100 PM EDT WED AUG 24 2016

NOTE: "FAIR" INDICATES FEW OR NO CLOUDS BELOW 12,000 FEET WITH NO
SIGNIFICANT WEATHER AND/OR OBSTRUCTIONS TO VISIBILITY.

NCZ001-053-055-056-065-067-241800-
WESTERN NORTH CAROLINA

CITY           SKY/WX    TMP DP  RH WIND       PRES   REMARKS
ASHEVILLE      CLOUDY    73  65  75 S6        30.37F
JEFFERSON      CLOUDY    69  64  84 CALM      30.40F
MORGANTON      CLOUDY    79  67  65 SW3       30.36F
HICKORY        CLOUDY    78  69  73 SW5       30.32F
RUTHERFORDTON    N/A     77  70  77 W5        30.33F
MOUNT AIRY     CLOUDY    79  72  80 CALM      30.34S
BOONE          LGT RAIN  71  59  66 SW6       30.41S
$$

NCZ021-022-025-041-071-084-088-241800-
CENTRAL NORTH CAROLINA

CITY           SKY/WX    TMP DP  RH WIND       PRES   REMARKS
CHARLOTTE      CLOUDY    86  65  49 VRB7      30.30F
GREENSBORO     CLOUDY    81  66  60 W6        30.29F
WINSTON-SALEM  CLOUDY    80  64  58 CALM      30.31F
RALEIGH-DURHAM PTSUNNY   82  61  48 CALM      30.29F
FORT BRAGG     MOSUNNY   85  63  46 N5        30.28F
FAYETTEVILLE   MOSUNNY   87  63  44 NE7       30.28F
BURLINGTON     PTSUNNY   82  67  60 CALM      30.29F
LAURINBURG     MOSUNNY   89  61  38 VRB5      30.28F
$$

NCZ011-015-027-028-043-044-047-080-103-241800-
NORTHEASTERN NORTH CAROLINA

CITY           SKY/WX    TMP DP  RH WIND       PRES   REMARKS
ROCKY MT-WILSO SUNNY     83  61  47 CALM      30.29F
GREENVILLE     SUNNY     84  61  45 E6        30.28F
WASHINGTON     MOSUNNY   82  60  47 NE9G16    30.27F
ELIZABETH CITY MOSUNNY   82  62  50 NE8       30.27F
MANTEO         MOSUNNY   81  70  68 E10       30.26F
CAPE HATTERAS  PTSUNNY   82  71  69 NE9G18    30.24F
$$

NCZ078-087-090-091-093-098-101-241800-
SOUTHEASTERN NORTH CAROLINA

CITY           SKY/WX    TMP DP  RH WIND       PRES   REMARKS
LUMBERTON      PTSUNNY   85  64  49 N6        30.27F
GOLDSBORO      MOSUNNY   84  60  44 NE5       30.26F
KINSTON        MOSUNNY   82  63  51 NE9       30.28F
KENANSVILLE    NOT AVBL
NEW BERN       MOSUNNY   83  62  49 N7        30.27F
CHERRY POINT   MOSUNNY   85  66  53 N10       30.26F
BEAUFORT       PTSUNNY   83  69  62 NE12      30.24F
JACKSONVILLE   SUNNY     84  57  39 N15G22    30.25F
WILMINGTON     MOSUNNY   84  63  49 N10G20    30.26F
$$





USA.gov is the U.S. government's official web portal to all federal, state and local government web resources and services.